EW3721 Weather Reports


Display with metric or nautical units.
time (UTC)temp
F
wind
direction
speed
MPH
gust
MPH
rain 1hr
in
rain 24hr
in
rain mn
in
humidity
%
barometer
mb
20260502152106 56 156 2.0 6.0 0.00 0.03 0.03 78 1011.8
20260502151606 56 190 2.0 6.0 0.00 0.03 0.03 77 1011.8
20260502151106 56 182 1.0 5.0 0.00 0.03 0.03 76 1011.9
20260502150605 56 184 3.0 5.0 0.00 0.03 0.03 76 1012.0
20260502150105 56 216 1.0 3.0 0.00 0.03 0.03 77 1012.0
20260502140106 54 222 1.0 2.0 0.00 0.03 0.03 84 1012.1
20260502130605 52 0 0.0 2.0 0.00 0.03 0.03 91 1012.1
20260502123606 51 243 0.0 2.0 0.01 0.03 0.03 95 1012.1
20260502123106 51 206 1.0 2.0 0.01 0.03 0.03 95 1012.1
20260502122605 51 206 1.0 2.0 0.01 0.03 0.03 95 1012.1
20260502122106 50 165 0.0 2.0 0.01 0.03 0.03 95 1012.2
20260502121606 50 240 0.0 3.0 0.01 0.03 0.03 95 1012.3
20260502121106 49 241 0.0 2.0 0.02 0.03 0.03 95 1012.3
20260502120606 49 245 1.0 2.0 0.02 0.03 0.03 95 1012.3
20260502120106 49 244 0.0 1.0 0.03 0.03 0.03 95 1012.0
20260502115605 49 244 1.0 2.0 0.02 0.02 0.02 95 1011.8
20260502115105 49 200 0.0 2.0 0.02 0.02 0.02 94 1011.5
20260502114106 48 197 0.0 1.0 0.02 0.02 0.02 94 1011.9
20260502113606 48 197 0.0 2.0 0.02 0.02 0.02 94 1011.9
20260502113106 48 197 0.0 1.0 0.02 0.02 0.02 94 1012.2
20260502112607 48 197 1.0 2.0 0.02 0.02 0.02 94 1012.3
20260502112107 48 136 1.0 3.0 0.02 0.02 0.02 94 1012.4
20260502111105 48 219 0.0 1.0 0.01 0.01 0.01 94 1012.6
20260502110605 48 219 0.0 0.0 0.01 0.01 0.01 94 1012.5
20260502110105 48 219 0.0 1.0 0.00 0.00 0.00 93 1012.6
20260502104605 48 219 0.0 2.0 0.00 0.00 0.00 93 1012.5
20260502103606 48 219 0.0 1.0 0.00 0.00 0.00 93 1012.2
20260502103106 48 219 1.0 2.0 0.00 0.00 0.00 93 1012.2
20260502102606 48 219 0.0 0.0 0.00 0.00 0.00 93 1012.1
20260502102105 48 219 0.0 0.0 0.00 0.00 0.00 93 1012.2
20260502101605 48 219 0.0 1.0 0.00 0.00 0.00 92 1012.2
20260502101105 48 219 1.0 1.0 0.00 0.00 0.00 92 1012.1
20260502100606 48 219 0.0 1.0 0.00 0.00 0.00 92 1011.9
20260502100105 48 219 0.0 1.0 0.00 0.00 0.00 92 1011.8
20260502091105 48 219 0.0 0.0 0.00 0.00 0.00 91 1011.6
20260502090605 48 219 0.0 2.0 0.00 0.00 0.00 90 1011.6
20260502090106 48 219 0.0 1.0 0.00 0.00 0.00 90 1011.5
20260502080107 49 219 0.0 0.0 0.00 0.00 0.00 89 1011.6
20260502071105 49 219 0.0 2.0 0.00 0.00 0.00 88 1011.9
20260502070605 49 219 0.0 0.0 0.00 0.00 0.00 88 1011.8
20260502070106 49 219 0.0 0.0 0.00 0.00 0.00 88 1011.8
20260502065606 49 219 0.0 0.0 0.00 0.00 0.00 87 1011.8
20260502065105 49 219 0.0 0.0 0.00 0.00 0.00 87 1011.7
20260502064605 49 219 0.0 0.0 0.00 0.00 0.00 87 1011.8
20260502064106 49 219 0.0 0.0 0.00 0.00 0.00 87 1011.8
20260502063606 49 219 0.0 0.0 0.00 0.00 0.00 87 1012.0
20260502063106 49 219 0.0 0.0 0.00 0.00 0.00 87 1011.9
20260502062105 49 219 0.0 0.0 0.00 0.00 0.00 87 1011.7
20260502061106 49 219 0.0 0.0 0.00 0.00 0.00 86 1011.8
20260502060605 49 219 0.0 0.0 0.00 0.00 0.00 86 1011.9
20260502060105 49 219 0.0 0.0 0.00 0.00 0.00 86 1011.9
20260502055605 49 219 0.0 0.0 0.00 0.00 0.00 86 1011.9
20260502055105 49 219 0.0 0.0 0.00 0.00 0.00 85 1012.1
20260502054606 49 219 0.0 1.0 0.00 0.00 0.00 85 1012.0
20260502054105 49 219 0.0 1.0 0.00 0.00 0.00 84 1012.1
20260502053105 49 219 0.0 0.0 0.00 0.00 0.00 84 1012.0
20260502052605 49 219 0.0 0.0 0.00 0.00 0.00 84 1012.2
20260502052105 49 219 0.0 0.0 0.00 0.00 0.00 83 1012.1
20260502051605 49 219 0.0 0.0 0.00 0.00 0.00 83 1012.2
20260502051105 49 219 0.0 0.0 0.00 0.00 0.00 83 1012.3
20260502045605 49 219 0.0 0.0 0.00 0.00 0.00 81 1012.3
20260502045105 49 219 0.0 0.0 0.00 0.00 0.00 81 1012.3
20260502044105 50 219 0.0 0.0 0.00 0.00 0.00 81 1012.4
20260502043105 50 219 0.0 0.0 0.00 0.00 0.00 80 1012.3
20260502042605 50 219 0.0 1.0 0.00 0.00 0.00 80 1012.4
20260502041605 50 219 0.0 0.0 0.00 0.00 0.00 79 1012.2
20260502040605 51 219 0.0 0.0 0.00 0.00 0.00 77 1012.4
20260502040105 51 219 0.0 0.0 0.00 0.00 0.00 78 1012.4
20260502035605 51 219 0.0 0.0 0.00 0.00 0.00 77 1012.3
20260502035105 51 219 0.0 0.0 0.00 0.00 0.00 77 1012.3
20260502034605 51 219 0.0 0.0 0.00 0.00 0.00 77 1012.4
20260502033105 51 219 0.0 0.0 0.00 0.00 0.00 77 1012.4
20260502032605 51 219 0.0 0.0 0.00 0.00 0.00 77 1012.4
20260502032105 51 219 0.0 0.0 0.00 0.00 0.00 76 1012.5
20260502031604 51 219 0.0 0.0 0.00 0.00 0.00 76 1012.4
20260502031105 52 219 0.0 0.0 0.00 0.00 0.00 76 1012.4
20260502030605 52 219 0.0 0.0 0.00 0.00 0.00 76 1012.4
20260502030105 52 219 0.0 0.0 0.00 0.00 0.00 75 1012.5
20260502025605 52 219 0.0 1.0 0.00 0.00 0.00 75 1012.4
20260502025107 52 219 0.0 1.0 0.00 0.00 0.00 76 1012.4
20260502024606 52 219 0.0 0.0 0.00 0.00 0.00 76 1012.4
20260502024104 52 219 0.0 0.0 0.00 0.00 0.00 76 1012.4
20260502023605 52 219 0.0 0.0 0.00 0.00 0.00 75 1012.5
20260502023104 52 219 0.0 0.0 0.00 0.00 0.00 75 1012.5
20260502022605 52 219 0.0 0.0 0.00 0.00 0.00 75 1012.6
20260502022105 52 219 0.0 0.0 0.00 0.00 0.00 75 1012.6
20260502021604 52 219 0.0 0.0 0.00 0.00 0.00 74 1012.6
20260502021105 52 219 0.0 0.0 0.00 0.00 0.00 74 1012.6
20260502020105 52 219 0.0 0.0 0.00 0.00 0.00 73 1012.5
20260502015605 52 219 0.0 0.0 0.00 0.00 0.00 73 1012.5
20260502015105 53 219 0.0 0.0 0.00 0.00 0.00 73 1012.5
20260502014605 53 219 0.0 0.0 0.00 0.00 0.00 73 1012.5
20260502014105 53 219 0.0 0.0 0.00 0.00 0.00 73 1012.5
20260502013606 53 219 0.0 1.0 0.00 0.00 0.00 73 1012.5
20260502013105 53 219 0.0 0.0 0.00 0.01 0.00 72 1012.5
20260502012605 53 219 0.0 0.0 0.00 0.01 0.00 72 1012.4
20260502012105 53 219 0.0 0.0 0.00 0.01 0.00 72 1012.5
20260502011605 53 219 0.0 1.0 0.00 0.01 0.00 72 1012.4
20260502010605 53 219 0.0 0.0 0.00 0.01 0.00 71 1012.4
20260502010104 53 219 0.0 0.0 0.00 0.01 0.00 71 1012.4
20260502005605 53 219 0.0 1.0 0.00 0.01 0.00 70 1012.3
20260502005105 53 219 0.0 1.0 0.00 0.01 0.00 70 1012.2
20260502004605 53 219 1.0 3.0 0.00 0.01 0.00 70 1012.1
20260502004105 53 182 0.0 1.0 0.00 0.01 0.00 69 1012.1
20260502003605 54 182 0.0 1.0 0.00 0.01 0.00 68 1012.0
20260502003104 54 182 1.0 2.0 0.00 0.01 0.00 67 1012.0
20260502002605 54 180 0.0 1.0 0.00 0.01 0.00 66 1011.9
20260502002105 54 180 0.0 1.0 0.00 0.01 0.00 65 1011.7
20260502001605 55 178 0.0 0.0 0.00 0.01 0.00 64 1011.6
20260502000604 55 178 1.0 5.0 0.00 0.01 0.00 63 1011.4
20260502000105 55 177 1.0 2.0 0.00 0.01 0.00 62 1011.4
20260501235605 56 176 0.0 3.0 0.00 0.01 0.00 61 1011.3
20260501235105 56 204 1.0 6.0 0.00 0.01 0.00 61 1011.3
20260501234604 56 228 1.0 3.0 0.00 0.01 0.00 60 1011.2
20260501234105 57 200 1.0 3.0 0.00 0.01 0.00 58 1011.1
20260501233605 57 202 1.0 3.0 0.00 0.01 0.00 58 1011.0
20260501232605 58 208 1.0 3.0 0.00 0.01 0.00 56 1010.9
20260501232104 58 205 0.0 1.0 0.00 0.01 0.00 54 1010.7
20260501231605 58 205 1.0 3.0 0.00 0.01 0.00 53 1010.6
20260501231105 58 205 0.0 5.0 0.00 0.01 0.00 51 1010.5
20260501230604 58 206 1.0 3.0 0.00 0.01 0.00 49 1010.5
20260501230105 59 204 1.0 2.0 0.00 0.01 0.00 47 1010.4
20260501225604 59 196 0.0 1.0 0.00 0.01 0.00 45 1010.3
20260501225105 60 196 0.0 0.0 0.00 0.01 0.00 45 1010.3
20260501224605 60 196 0.0 0.0 0.00 0.01 0.00 44 1010.3
20260501224105 60 196 1.0 2.0 0.00 0.02 0.00 44 1010.4
20260501223605 60 196 1.0 2.0 0.00 0.02 0.00 44 1010.3
20260501223104 60 192 3.0 5.0 0.00 0.02 0.00 41 1010.4
20260501222605 61 189 3.0 5.0 0.00 0.02 0.00 42 1010.3
20260501222104 61 190 1.0 8.0 0.00 0.03 0.00 42 1010.3
20260501221605 61 201 2.0 5.0 0.00 0.04 0.00 41 1010.2
20260501221104 62 183 2.0 7.0 0.00 0.07 0.00 42 1010.2
20260501220604 62 197 1.0 5.0 0.00 0.08 0.00 44 1010.2
20260501215605 63 191 0.0 3.0 0.00 0.12 0.00 40 1010.3
20260501215104 63 202 1.0 3.0 0.00 0.12 0.00 40 1010.3
20260501214605 63 209 1.0 7.0 0.00 0.12 0.00 41 1010.2
20260501214104 64 178 2.0 5.0 0.00 0.12 0.00 43 1010.1
20260501213604 64 210 2.0 8.0 0.00 0.12 0.00 42 1010.2
20260501213104 64 180 2.0 5.0 0.00 0.12 0.00 39 1010.2
20260501212605 64 178 3.0 8.0 0.00 0.12 0.00 38 1010.2
20260501212105 65 215 1.0 6.0 0.00 0.12 0.00 38 1010.1
20260501211604 65 192 2.0 10.0 0.00 0.12 0.00 39 1010.2
20260501211105 65 178 2.0 3.0 0.00 0.12 0.00 39 1010.1
20260501210605 65 180 2.0 8.0 0.00 0.12 0.00 39 1010.1
20260501210104 66 184 5.0 12.0 0.00 0.12 0.00 37 1009.9
20260501204105 66 176 2.0 7.0 0.00 0.12 0.00 43 1010.0
20260501203605 65 213 2.0 6.0 0.00 0.12 0.00 38 1010.0
20260501203105 65 140 6.0 10.0 0.00 0.12 0.00 32 1009.9
20260501202604 66 162 2.0 5.0 0.00 0.12 0.00 32 1009.9
20260501202105 66 246 3.0 7.0 0.00 0.12 0.00 35 1009.9
20260501201604 66 233 2.0 8.0 0.00 0.12 0.00 34 1010.0
20260501201105 66 164 3.0 9.0 0.00 0.12 0.00 36 1010.1
20260501200604 66 171 1.0 5.0 0.00 0.12 0.00 37 1010.0
20260501200105 65 149 2.0 5.0 0.00 0.12 0.00 37 1010.1
20260501195104 65 220 2.0 7.0 0.00 0.12 0.00 35 1010.1
20260501194605 65 207 2.0 6.0 0.00 0.12 0.00 34 1010.2
20260501194105 65 229 2.0 5.0 0.00 0.12 0.00 36 1010.4
20260501193604 64 211 1.0 3.0 0.00 0.12 0.00 39 1010.3
20260501193104 64 157 4.0 8.0 0.00 0.12 0.00 37 1010.4
20260501192604 64 144 3.0 3.0 0.00 0.12 0.00 33 1010.4
20260501192104 64 215 3.0 6.0 0.00 0.12 0.00 40 1010.5
20260501191104 64 203 4.0 10.0 0.00 0.12 0.00 36 1010.6
20260501190604 65 209 3.0 10.0 0.00 0.12 0.00 34 1010.5
20260501190105 65 219 3.0 9.0 0.00 0.12 0.00 36 1010.6
20260501185605 65 171 1.0 5.0 0.00 0.12 0.00 41 1010.6
20260501185105 65 181 3.0 7.0 0.00 0.12 0.00 38 1010.7
20260501184604 64 146 2.0 6.0 0.00 0.12 0.00 38 1010.8
20260501183604 64 232 3.0 9.0 0.00 0.12 0.00 37 1011.1
20260501183104 64 157 3.0 13.0 0.00 0.12 0.00 39 1011.0
20260501182604 64 142 3.0 13.0 0.00 0.12 0.00 39 1011.0
20260501182104 63 200 3.0 7.0 0.00 0.12 0.00 44 1011.0
20260501181604 63 204 4.0 8.0 0.00 0.12 0.00 38 1011.1
20260501181105 64 237 4.0 8.0 0.00 0.12 0.00 37 1011.1
20260501180604 64 197 3.0 8.0 0.00 0.12 0.00 41 1011.1
20260501180104 63 213 2.0 5.0 0.00 0.12 0.00 38 1011.2
20260501175604 63 228 3.0 6.0 0.00 0.12 0.00 40 1011.2
20260501175104 63 188 3.0 6.0 0.00 0.12 0.00 39 1011.1
20260501174604 63 249 4.0 8.0 0.00 0.12 0.00 42 1011.1
20260501174104 62 156 1.0 3.0 0.00 0.12 0.00 44 1011.1
20260501173604 62 221 2.0 8.0 0.00 0.12 0.00 40 1011.2
20260501173104 62 156 3.0 9.0 0.00 0.12 0.00 40 1011.3
20260501172604 63 182 5.0 9.0 0.00 0.12 0.00 40 1011.1
20260501171605 62 226 3.0 6.0 0.00 0.12 0.00 44 1011.1
20260501171105 61 164 2.0 9.0 0.00 0.12 0.00 45 1011.2
20260501170605 61 137 5.0 12.0 0.00 0.12 0.00 40 1011.3
20260501170105 62 211 8.0 20.0 0.00 0.12 0.00 43 1011.5
20260501165604 62 227 3.0 9.0 0.00 0.12 0.00 41 1011.4
20260501165105 62 182 3.0 7.0 0.00 0.12 0.00 43 1011.3
20260501164604 61 208 3.0 8.0 0.00 0.12 0.00 45 1011.4
20260501164105 60 168 2.0 5.0 0.00 0.12 0.00 47 1011.5
20260501163604 60 142 7.0 10.0 0.00 0.12 0.00 43 1011.6
20260501162104 60 237 4.0 12.0 0.00 0.12 0.00 42 1011.7
20260501161604 60 198 5.0 12.0 0.00 0.12 0.00 43 1011.7
20260501161105 61 225 3.0 8.0 0.00 0.12 0.00 44 1011.8
20260501160604 60 203 1.0 5.0 0.00 0.12 0.00 42 1011.8
20260501160105 60 147 2.0 6.0 0.00 0.12 0.00 44 1012.0
20260501155604 60 190 2.0 6.0 0.00 0.12 0.00 51 1012.1
20260501155104 59 156 5.0 10.0 0.00 0.12 0.00 47 1012.2
20260501154605 59 200 2.0 5.0 0.00 0.12 0.00 47 1012.1
20260501153605 59 226 3.0 8.0 0.00 0.12 0.00 49 1012.2
20260501153105 59 229 3.0 5.0 0.00 0.12 0.00 49 1012.1